Regional Weather Roundup
Issued by NWS

Home | Current Version | Previous Version | Graphics & Text | Print | Product List | Glossary On
Versions: 1 2 3 4 5 6 7 8 9 10 11 12 13 14 15 16 17 18 19 20 21 22 23 24 25 26 27 28 29 30 31 32 33 34 35 36 37 38 39 40 41 42 43 44 45 46 47 48 49 50
000
ASUS43 KBIS 211310
RWRND

NORTH DAKOTA REGIONAL WEATHER ROUNDUP
NATIONAL WEATHER SERVICE BISMARCK ND
700 AM CST SAT JAN 21 2017

NOTE: "FAIR" INDICATES FEW OR NO CLOUDS BELOW 12,000 FEET WITH NO
SIGNIFICANT WEATHER AND/OR OBSTRUCTIONS TO VISIBILITY.


NDZ001>003-009>011-017-211400-
NORTHWEST NORTH DAKOTA

CITY           SKY/WX    TMP DP  RH WIND       PRES   REMARKS
WILLISTON      CLOUDY    27  24  89 S3        29.30S
MINOT          CLOUDY    28  26  92 CALM      29.31R FOG
MINOT AFB      PTCLDY    26  25  96 CALM      29.30R FOG
$$

NDZ018>021-031>035-040>046-211400-
SOUTHWEST NORTH DAKOTA

CITY           SKY/WX    TMP DP  RH WIND       PRES   REMARKS
BISMARCK       CLOUDY    30  27  88 W5        29.33R
DICKINSON      CLOUDY    29  26  89 W10       29.28R WCI  20
GARRISON         N/A     23  21  92 W5        29.31R WCI  17
HETTINGER ARPT CLOUDY    29  26  89 W8        29.31S
$$

NDZ004>008-012>016-024-026-027-054-211400-
NORTHEAST NORTH DAKOTA

CITY           SKY/WX    TMP DP  RH WIND       PRES   REMARKS
GRAND FORKS    CLOUDY    36  32  85 SE8       29.40R
GRND FRKS AFB  CLOUDY    33  33  99 SE9       29.40R
DEVILS LAKE    FOG       33  33 100 SE7       29.36R VSB 1/2
$$

NDZ022-023-025-028>030-036>039-047>053-211400-
SOUTHEAST NORTH DAKOTA

CITY           SKY/WX    TMP DP  RH WIND       PRES   REMARKS
FARGO          CLOUDY    38  35  89 SE8       29.38R
JAMESTOWN      FOG       32  32 100 S7        29.33R VSB 1/4
$$





USA.gov is the U.S. government's official web portal to all federal, state and local government web resources and services.